OV1-5 DEB, 5599

Orbit data source: Space-Track

OV1-5 DEB, 5599 is space debris in LEO originally from a launch on Wed, 30 Mar 1966 UTC launched from the Air Force Western Test Range (AFWTR). Debris objects in space refer to the collection of defunct objects orbiting the Earth. Examples of debris include non-operational satellites, rocket bodies, and fragments generated from explosions, collisions, or faulty payload assembly.

Loading next visibility...
Identifier
5599, 1966-025G
Orbit
LEO
Last TLE update
1 day ago
Origin
Flag of USAir Force Systems Command (OAR legacy assets) (US)
Manufacturer
Unknown
Mission
Spacecraft
Bus & Motor
Unknown
Mass
Unknown
Launch date (UTC)
1966-03-30 (59 years ago)
Launch vehicle
Unknown
Launch site
Air Force Western Test Range (AFWTR)
Object type
Payload
Rocket body
Debris
Shape & HBR
Unknown
Radar Cross Section
Small (<0.1 m²)

Expand to show TLE details & history

TLE from 1 day ago
0 OV1-5 DEB
1 05599U 66025G   25199.35510357  .00014357  00000-0  20173-2 0  9997
2 05599 144.6201   6.8871 0028140 333.9405  25.9889 14.74915000 54865
Epoch: 2025-07-18T08:31Z
TLE epoch observation values (Epoch: 2025-07-18T08:31:20.948Z)
Latitude
0.00001°
Longitude
-57.35795°
Altitude
626.639 km
Speed
7.557 km/s
True Right ascension
00h 27m 32s
True Declination
0° 00' 00"
Sunlit
Object was in daylight at epoch
Visualization orbit readout
Latitude
-7.16828°
Longitude
118.21073°
Altitude
662.564 km
Speed
7.519 km/s
Apparent Right ascension
10h 51m 28s
Apparent Declination
-24° 25' 46"
Sunlit
Object is in daylight
Visualization observer readout
Local Sidereal Time
20:57:14
Azimuth
294.235° NW
Elevation
-61.489°
Doppler factor
1
Orbital elements
Apogee altitude
668.317 km
Perigee altitude
628.771 km
Semi-major axis
7,026.681 km
Eccentricity
0.00281
Inclination
144.6201°
RAAN
6.8871°
Arg. of periapsis
333.9405°
True anomaly
26.13065°
Mean anomaly
25.9889°
Eccentric anomaly
26.05973°
Mean motion
3.68483 °/min
Orbital period
97.7 mins
BSTAR
0.0020173
Loading maneuver chart data...
Loading SW <> Apogee altitude chart data...
Loading historical data...
Loading historical data...
Loading historical data...
Loading historical data...
Loading historical data...
Loading historical data...
Loading historical data...
|